Location: Brno
(49.2000°N, 16.6330°E)
Time: 01:12:41
(UTC+02:00)

Transit 4A - Pass Details

Date: 03 August 2021
Orbit: 870 x 974 km, 66.8° (Epoch: 26 September)

Event Time Altitude Azimuth Distance (km) Brightness Sun altitude
Rises 23:13:31 0° 177° (S) 3,487 - -19.5°
Reaches altitude 10° 23:16:21 10° 166° (SSE) 2,538 - -19.7°
Exits shadow 23:21:01 27° 113° (ESE) 1,605 8.7 -20.0°
Maximum altitude 23:21:11 28° 110° (ESE) 1,604 8.8 -20.0°
Drops below altitude 10° 23:26:00 10° 54° (NE) 2,526 10.3 -20.4°
Sets 23:28:48 0° 43° (NE) 3,467 11.2 -20.5°
